TimeGMT,TemperatureF,Dew PointF,Humidity,Sea Level PressureIn,VisibilityMPH,Wind Direction,Wind SpeedMPH,Gust SpeedMPH,PrecipitationIn,Events,Conditions,WindDirDegrees,DateUTC
6:50 AM,50.0,44.6,82,30.33,6.2,WNW,12.7,-,N/A,,Mostly Cloudy,290,2012-11-07 06:50:00
7:20 AM,50.0,44.6,82,30.33,6.2,WNW,11.5,-,N/A,,Mostly Cloudy,290,2012-11-07 07:20:00
7:50 AM,50.0,44.6,82,30.36,6.2,West,10.4,-,N/A,,Mostly Cloudy,280,2012-11-07 07:50:00
8:20 AM,50.0,44.6,82,30.36,6.2,West,12.7,-,N/A,,Mostly Cloudy,280,2012-11-07 08:20:00
8:50 AM,51.8,44.6,76,30.36,6.2,West,13.8,-,N/A,,Mostly Cloudy,260,2012-11-07 08:50:00
9:20 AM,51.8,44.6,76,30.36,6.2,West,12.7,-,N/A,,Mostly Cloudy,260,2012-11-07 09:20:00
9:50 AM,51.8,44.6,76,30.36,6.2,West,13.8,-,N/A,,Mostly Cloudy,280,2012-11-07 09:50:00
10:20 AM,51.8,44.6,76,30.36,6.2,West,13.8,-,N/A,,Mostly Cloudy,260,2012-11-07 10:20:00
10:50 AM,51.8,44.6,76,30.39,6.2,WSW,11.5,-,N/A,,Mostly Cloudy,250,2012-11-07 10:50:00
11:20 AM,51.8,44.6,76,30.36,6.2,West,13.8,-,N/A,,Mostly Cloudy,280,2012-11-07 11:20:00
11:50 AM,51.8,44.6,76,30.36,6.2,West,11.5,-,N/A,,Mostly Cloudy,270,2012-11-07 11:50:00
12:20 PM,51.8,44.6,76,30.36,6.2,West,12.7,-,N/A,,Mostly Cloudy,260,2012-11-07 12:20:00
12:50 PM,51.8,44.6,76,30.36,6.2,West,12.7,-,N/A,,Mostly Cloudy,280,2012-11-07 12:50:00
1:20 PM,51.8,44.6,76,30.36,6.2,West,15.0,-,N/A,,Mostly Cloudy,260,2012-11-07 13:20:00
1:50 PM,51.8,44.6,76,30.33,6.2,WSW,10.4,-,N/A,,Mostly Cloudy,250,2012-11-07 13:50:00
2:20 PM,50.0,44.6,82,30.33,6.2,West,11.5,-,N/A,,Mostly Cloudy,260,2012-11-07 14:20:00
2:50 PM,51.8,44.6,76,30.33,6.2,West,11.5,-,N/A,,Mostly Cloudy,270,2012-11-07 14:50:00
3:20 PM,51.8,44.6,76,30.33,6.2,West,11.5,-,N/A,,Mostly Cloudy,270,2012-11-07 15:20:00
3:50 PM,50.0,44.6,82,30.33,6.2,West,10.4,-,N/A,,Mostly Cloudy,260,2012-11-07 15:50:00
4:20 PM,50.0,44.6,82,30.33,6.2,West,12.7,-,N/A,,Mostly Cloudy,270,2012-11-07 16:20:00
4:50 PM,50.0,42.8,76,30.33,6.2,West,5.8,-,N/A,,Mostly Cloudy,270,2012-11-07 16:50:00
5:20 PM,50.0,42.8,76,30.33,6.2,West,13.8,-,N/A,,Mostly Cloudy,260,2012-11-07 17:20:00
5:50 PM,51.8,44.6,76,30.33,6.2,West,12.7,-,N/A,,Mostly Cloudy,260,2012-11-07 17:50:00
6:20 PM,50.0,42.8,76,30.33,6.2,WSW,15.0,-,N/A,,Mostly Cloudy,250,2012-11-07 18:20:00